Printer-friendly version

IAU Minor Planet Center

Minor Planet Center

MPEC 2006-U53 : 2006 UC64

The following Minor Planet Electronic Circular may be linked-to from your own Web pages, but must not otherwise be redistributed electronically.


Read MPEC 2006-U52 Read MPEC 2006-U54


M.P.E.C. 2006-U53                                Issued 2006 Oct. 24, 15:54 UT

     The Minor Planet Electronic Circulars contain information on unusual
         minor planets and routine data on comets.  They are published
   on behalf of Commission 20 of the International Astronomical Union by the
          Minor Planet Center, Smithsonian Astrophysical Observatory,
                          Cambridge, MA 02138, U.S.A.

             Prepared using the Tamkin Foundation Computer Network

                              MPC@CFA.HARVARD.EDU
          URL http://cfa-www.harvard.edu/iau/mpc.html  ISSN 1523-6714

                                   2006 UC64

Observations:
     K06U64C* C2006 10 23.21635 00 08 09.56 +07 30 36.5          20.6 V EU053G96
     K06U64C  C2006 10 23.22469 00 08 02.94 +07 29 37.5          20.4 V EU053G96
     K06U64C  C2006 10 23.23292 00 07 56.49 +07 28 40.1          20.3 V EU053G96
     K06U64C  C2006 10 23.24126 00 07 49.90 +07 27 40.3          21.3 V EU053G96
     K06U64C  C2006 10 23.32893 00 06 39.88 +07 17 10.7                 EU053G96
     K06U64C  C2006 10 23.33847 00 06 32.18 +07 16 01.3                 EU053G96
     K06U64C  C2006 10 23.34818 00 06 24.51 +07 14 50.3                 EU053G96
     K06U64C  C2006 10 23.35791 00 06 16.70 +07 13 39.9                 EU053G96
     K06U64C  C2006 10 24.09079 23 56 05.70 +05 35 35.1          20.1 R EU053649
     K06U64C  C2006 10 24.09472 23 56 02.00 +05 34 59.8          19.1 R EU053649
     K06U64C  C2006 10 24.09795 23 55 58.92 +05 34 32.9          19.7 R EU053649
     K06U64C  C2006 10 24.10600 23 55 51.27 +05 33 19.9          20.4 R EU053734
     K06U64C  C2006 10 24.10936 23 55 48.17 +05 32 51.0          20.9 R EU053734
     K06U64C  C2006 10 24.11280 23 55 44.99 +05 32 21.1          21.1 R EU053734
     K06U64C  C2006 10 24.12301 23 55 34.92 +05 30 49.8          20.7 R EU053734
     K06U64C  C2006 10 24.12664 23 55 31.59 +05 30 18.3          20.9 R EU053734
     K06U64C  C2006 10 24.14283 23 55 15.63 +05 27 54.6          19.8 R EU053649
     K06U64C  C2006 10 24.14606 23 55 12.58 +05 27 26.6          19.9 R EU053649
     K06U64C  C2006 10 24.14928 23 55 09.40 +05 26 56.7          20.0 R EU053649
     K06U64C  C2006 10 24.15251 23 55 06.29 +05 26 27.5          20.0 R EU053649

Observer details:
649 Powell Observatory, Louisburg.  Observers R. Trentman, R. Fredrick.
    0.75-m Newtonian reflector + CCD.
734 Farpoint Observatory.  Observer D. Tibbets.  Measurer G. Hug.  0.7-m
    reflector + CCD.
G96 Mt. Lemmon Survey.  Observer R. A. Kowalski.  Measurers E. C. Beshore,
    E. J. Christensen, G. J. Garradd, A. R. Gibbs, A. D. Grauer, R. E. Hill,
    R. A. Kowalski, S. M. Larson, R. H. McNaught.  1.5-m reflector + CCD.

Orbital elements:
2006 UC64                                                Earth MOID = 0.0030 AU
Epoch 2006 Sept. 22.0 TT = JDT 2454000.5                MPC
M 330.37783              (2000.0)            P               Q
n   0.35217869     Peri.  268.48388     -0.50614631     -0.86061235
a   1.9859150      Node   212.12183     +0.82736629     -0.46611738
e   0.6929772      Incl.    6.07089     +0.24347675     -0.20513647
P   2.80           H   24.9           G   0.15           U   9
Residuals in seconds of arc
061023 G96  0.3+  0.1-    061023 G96  0.5+  1.1+    061024 734  0.8-  0.4-
061023 G96  0.2-  0.4-    061024 649  0.9-  0.3+    061024 734  1.7+  0.3+
061023 G96  0.7+  0.3+    061024 649  0.1-  0.5-    061024 649  0.6-  0.1+
061023 G96  1.0+  0.4-    061024 649  0.0   1.0+    061024 649  0.7+  1.0+
061023 G96  0.1-  0.0     061024 734  0.9-  0.6-    061024 649  0.0   0.2-
061023 G96  0.9-  0.2+    061024 734  0.9+  0.1+    061024 649  0.5+  0.5-
061023 G96  0.7+  0.2+    061024 734  2.8+  0.6+

Ephemeris:
2006 UC64                a,e,i = 1.99, 0.69, 6                   q = 0.6097
Date    TT    R. A. (2000) Decl.     Delta      r     Elong.  Phase     V
2006 10 22    00 21.53   +09 34.9    0.0940   1.084   159.3    18.9    20.9
2006 10 23    00 10.80   +07 56.1    0.0840   1.072   155.5    22.6    20.8
2006 10 24    23 57.43   +05 49.9    0.0743   1.060   150.9    27.2    20.6
2006 10 25    23 40.43   +03 05.9    0.0652   1.049   145.1    32.9    20.5
2006 10 26    23 18.33   -00 30.4    0.0567   1.037   137.8    40.1    20.3
2006 10 27    22 49.05   -05 15.9    0.0492   1.025   128.3    49.6    20.3
2006 10 28    22 09.94   -11 22.0    0.0432   1.013   116.1    61.7    20.3
2006 10 29    21 18.67   -18 29.8    0.0395   1.002   101.0    76.8    20.6
2006 10 30    20 16.01   -25 22.9    0.0385   0.990    84.2    93.6    21.1
2006 10 31    19 08.96   -30 19.5    0.0406   0.978    67.8   109.9    22.1
2006 11 01    18 07.80   -32 43.1    0.0453   0.967    53.9   123.9    23.3

Kyle E. Smalley              (C) Copyright 2006 MPC           M.P.E.C. 2006-U53

Read MPEC 2006-U52 Read MPEC 2006-U54


Our Web policy. Index to the CBAT/MPC/ICQ pages.


Valid HTML 4.01!